Weather Roundup
Issued by NWS Corpus Christi, TX

Home | Current Version | Previous Version | Text Only | Print | Product List | Glossary On
Versions: 1 2 3 4 5 6 7 8 9 10 11 12 13 14 15 16 17 18 19 20 21 22 23 24 25 26 27 28 29 30 31 32 33 34 35 36 37 38 39 40 41 42 43 44 45 46 47 48 49 50
000
ASUS44 KCRP 230910
HRRCRP

SOUTH TEXAS REGIONAL WEATHER ROUNDUP
NATIONAL WEATHER SERVICE CORPUS CHRISTI TX
300 AM CST SUN NOV 23 2014


TXZ229>244-231000-
...CORPUS CHRISTI AREA OBSERVATIONS...

CITY           SKY/WX    TMP DP  RH WIND       PRES   REMARKS
CORPUS CHRISTI PTCLDY    62  60  93 SW6       29.75R
NAS CORPUS CHR CLEAR     62  62 100 W7        29.74R
ROCKPORT       MOCLDY    61  59  93 SW7       29.73S
ALICE          PTCLDY    59  58  96 CALM      29.74S
FALFURRIAS     CLEAR     59  57  94 S3        29.75F
$$

...VICTORIA AREA OBSERVATIONS...

CITY           SKY/WX    TMP DP  RH WIND       PRES   REMARKS
VICTORIA       CLOUDY    61  57  87 W7        29.71S
BEEVILLE       FAIR      57  56  97 SW5       29.74R
PLEASANTON     CLEAR     53  50  90 CALM      29.74S
SAN ANTONIO    MOCLDY    59  57  93 SW5       29.72S
$$

...LAREDO AREA OBSERVATIONS...

CITY           SKY/WX    TMP DP  RH WIND       PRES   REMARKS
LAREDO         CLEAR     56  55  96 S5        29.78S
COTULLA        CLEAR     54  51  90 W5        29.74F
DEL RIO        CLEAR     48  47  96 CALM      29.72F
MCALLEN        FOG       63  63 100 N3        29.78F VSB 3/4
HEBBRONVILLE   CLEAR     56  54  94 SW5       29.76F FOG
$$

...OTHER TEXAS OBSERVATIONS...

CITY           SKY/WX    TMP DP  RH WIND       PRES   REMARKS
BROWNSVILLE    CLEAR     63  62  97 S5        29.76F
HOUSTON        CLOUDY    62  61  96 CALM      29.65R
COL. STATION   CLOUDY    58  58 100 S7        29.63F
AUSTIN         CLOUDY    57  57 100 SW5       29.68R
WACO           CLOUDY    57  55  93 W3        29.66R
FORT WORTH     CLOUDY    51  51 100 SW6       29.62F
WICHITA FALLS  FOG       49  48  97 SE8       29.57F VSB 1/4
LUBBOCK        PTCLDY    50  27  40 W15       29.57F
EL PASO        CLEAR     53  21  28 S13       29.88F
$$

...MARINE OBSERVATIONS...

STATION/POSITION TIME  SKY/WX   TEMP    WIND        PRES    VSBY  WAVE   SWELL
                                AIR SEA DIR/SP/G                  HT/PER HT/PER
                 (UTC)          (F)     (DEG/KT/KT) (MB)    (MI)  (FT/S) (FT/S)
PORT ARANSAS     0900            63 62  220/  8/  9 1007.4S
BUOY 90 E PORT A 0900            68 73  150/  4/  8 1005.1F         7/ 8   7/ 8
BUOY 45 SE BAFFI 0900            68 74  240/ 12/ 16 1007.0S         5/ 8   5/ 8
BUOY 200 E PT IS 0900            76 75  220/ 14/ 17 1008.1R         8/ 7   5/ 8
BUOY 15 E GALVES 0900            61 61  100/ 12/ 16 1003.4F         4/ 7   3/ 7
$$


USA.gov is the U.S. government's official web portal to all federal, state and local government web resources and services.